Weather History for Concord, CA

Change the Weather History Date:

Monday, March 31, 2014

  Actual Average Record
Temperature  
Mean Temperature 51 °F 56 °F  
Max Temperature 57 °F 67 °F 82 °F (2001)
Min Temperature 44 °F 46 °F 38 °F (2008)
Degree Days  
Heating Degree Days 14    
Month to date heating degree days 207  
Since 1 July heating degree days 1953  
Cooling Degree Days 0    
Month to date cooling degree days 0  
Year to date cooling degree days 0  
Moisture  
Dew Point 43 °F    
Average Humidity 75    
Maximum Humidity 93    
Minimum Humidity 57    
Precipitation  
Precipitation 0.61 in - 0.61 in (2014)
Month to date precipitation 1.87  
Year to date precipitation 6.46  
Since 1 July precipitation 8.94  
Sea Level Pressure  
Sea Level Pressure 29.89 in    
Wind  
Wind Speed 8 mph (South)    
Max Wind Speed 24 mph    
Max Gust Speed 31 mph    
Visibility 8 miles    
Events Rain    
T = Trace of Precipitation, MM = Missing Value Source: NWS Daily Summary

Daily Weather History Graph

Daily Weather History Graph

Search for Another Location

Airport:

Trip Planner

Search our weather history database for the weather conditions in past years. The results will help you decide how hot, cold, wet, or windy it might be!

Date:

Astronomy

Mar. 31, 2014 Rise Set
Actual Time 6:54 AM PDT 7:30 PM PDT
Civil Twilight 6:28 AM PDT 7:56 PM PDT
Nautical Twilight 5:57 AM PDT 8:28 PM PDT
Astronomical Twilight 5:25 AM PDT 9:00 PM PDT
Moon 7:22 AM PDT (3/31) 8:53 PM PDT (3/31)
Length of Visible Light 13h 28m
Length of Day
12h 35m
New Moon, 1% of the Moon is Illuminated
Mar 31
New Moon
Apr 7
First Quarter
Apr 15
Full
Apr 22
Last Quarter
Apr 28
New

Hourly Weather History & Observations

Time (PDT) Temp. Windchill Dew Point Humidity Pressure Visibility Wind Dir Wind Speed Gust Speed Precip Events Conditions
12:53 AM 46.9 °F - 42.1 °F 83% 30.04 in 10.0 mi South 3.5 mph - N/A   Clear
1:53 AM 46.0 °F 43.9 °F 42.1 °F 86% 30.02 in 10.0 mi SSE 4.6 mph - N/A   Clear
2:53 AM 46.9 °F - 43.0 °F 86% 30.01 in 10.0 mi South 4.6 mph - N/A   Clear
3:53 AM 46.9 °F - 43.0 °F 86% 29.99 in 10.0 mi South 4.6 mph - N/A   Clear
4:53 AM 48.0 °F - 43.0 °F 83% 29.97 in 10.0 mi South 4.6 mph - N/A   Mostly Cloudy
5:53 AM 46.9 °F - 43.0 °F 86% 29.95 in 10.0 mi SE 3.5 mph - N/A   Partly Cloudy
6:53 AM 46.9 °F - 44.1 °F 90% 29.94 in 10.0 mi SSW 4.6 mph - N/A   Mostly Cloudy
7:53 AM 48.9 °F - 43.0 °F 80% 29.93 in 10.0 mi South 3.5 mph - N/A   Overcast
8:53 AM 51.1 °F - 42.1 °F 71% 29.92 in 10.0 mi Calm Calm - N/A   Overcast
9:53 AM 55.0 °F - 41.0 °F 59% 29.89 in 10.0 mi South 13.8 mph 20.7 mph N/A   Scattered Clouds
10:53 AM 55.9 °F - 42.1 °F 60% 29.87 in 10.0 mi South 16.1 mph 24.2 mph N/A   Overcast
11:53 AM 55.9 °F - 41.0 °F 57% 29.86 in 10.0 mi South 15.0 mph 26.5 mph N/A   Overcast
12:53 PM 57.0 °F - 42.1 °F 57% 29.83 in 10.0 mi SSE 15.0 mph 27.6 mph 0.00 in   Mostly Cloudy
1:48 PM 48.2 °F - 44.6 °F 87% 29.90 in 2.0 mi SW 13.8 mph 28.8 mph 0.11 in Rain Rain
1:53 PM 48.0 °F - 45.0 °F 89% 29.86 in 2.0 mi SW 13.8 mph 23.0 mph 0.16 in Rain Rain
2:00 PM 48.0 °F - 45.0 °F 89% 29.90 in 1.5 mi SW 9.2 mph - 0.04 in Rain Heavy Rain
2:11 PM 46.9 °F - 45.0 °F 93% 29.89 in 2.0 mi Calm Calm - 0.08 in Rain Rain
2:53 PM 48.0 °F - 45.0 °F 89% 29.84 in 4.0 mi South 4.6 mph - 0.22 in Rain Rain
3:53 PM 46.0 °F 41.9 °F 44.1 °F 93% 29.81 in 5.0 mi SSE 8.1 mph - 0.13 in Rain Light Rain
4:53 PM 46.9 °F - 44.1 °F 90% 29.82 in 9.0 mi SSW 10.4 mph - 0.08 in Rain Light Rain
5:26 PM 46.9 °F - 44.1 °F 90% 29.86 in 6.0 mi SSW 8.1 mph - 0.00 in Rain Light Rain
5:53 PM 48.9 °F - 46.0 °F 90% 29.81 in 10.0 mi South 10.4 mph - 0.01 in   Mostly Cloudy
6:53 PM 48.9 °F - 44.1 °F 83% 29.81 in 10.0 mi South 12.7 mph - N/A   Scattered Clouds
7:53 PM 46.9 °F - 44.1 °F 90% 29.81 in 10.0 mi South 8.1 mph - N/A   Clear
8:53 PM 46.0 °F 41.9 °F 44.1 °F 93% 29.83 in 10.0 mi South 8.1 mph - N/A   Partly Cloudy
9:53 PM 44.1 °F 40.8 °F 42.1 °F 93% 29.85 in 10.0 mi South 5.8 mph - N/A   Clear
10:53 PM 46.0 °F 42.5 °F 44.1 °F 93% 29.87 in 8.0 mi SSE 6.9 mph - 0.00 in Rain Light Rain
11:53 PM 46.0 °F 41.4 °F 44.1 °F 93% 29.87 in 10.0 mi South 9.2 mph - 0.00 in   Scattered Clouds